FW6560 Weather Reports


time (UTC)temp
C
wind
direction
speed
KPH
gust
KPH
rain 1hr
cm
rain 24hr
cm
rain mn
cm
humidity
%
barometer
mb
20260506202238 28 23 6.4 11.3 0.00 0.00 0.00 73 1008.8
20260506201728 29 68 0.0 14.5 0.00 0.00 0.00 73 1008.7
20260506200707 29 68 1.6 14.5 0.00 0.00 0.00 73 1008.9
20260506200157 29 90 0.0 11.3 0.00 0.00 0.00 73 1008.9
20260506195648 29 90 0.0 12.9 0.00 0.00 0.00 73 1009.0
20260506194628 29 45 0.0 17.7 0.00 0.00 0.00 72 1009.0
20260506194117 29 90 4.8 17.7 0.00 0.00 0.00 73 1008.8
20260506193608 29 113 6.4 17.7 0.00 0.00 0.00 72 1008.9
20260506193057 30 68 0.0 17.7 0.00 0.00 0.00 72 1008.8
20260506192546 30 45 3.2 17.7 0.00 0.00 0.00 71 1009.1
20260506192037 30 68 0.0 17.7 0.00 0.00 0.00 71 1009.1
20260506191025 30 68 6.4 20.9 0.00 0.00 0.00 70 1008.9
20260506185956 30 68 11.3 17.7 0.00 0.00 0.00 69 1009.0
20260506185445 30 45 8.0 17.7 0.00 0.00 0.00 69 1009.0
20260506184935 30 45 3.2 17.7 0.00 0.00 0.00 68 1008.8
20260506184426 30 68 0.0 17.7 0.00 0.00 0.00 68 1009.1
20260506183915 30 90 3.2 17.7 0.00 0.00 0.00 68 1009.2
20260506183406 30 68 3.2 17.7 0.00 0.00 0.00 68 1009.2
20260506182855 30 23 4.8 17.7 0.00 0.00 0.00 68 1009.5
20260506182346 30 113 6.4 17.7 0.00 0.00 0.00 68 1009.6
20260506181835 30 90 1.6 20.9 0.00 0.00 0.00 68 1009.5
20260506181325 31 68 1.6 20.9 0.00 0.00 0.00 66 1009.5
20260506180815 31 90 1.6 17.7 0.00 0.00 0.00 66 1009.5
20260506180305 31 68 3.2 20.9 0.00 0.00 0.00 67 1009.7
20260506175755 31 90 8.0 20.9 0.00 0.00 0.00 67 1009.8
20260506175244 30 68 8.0 20.9 0.00 0.00 0.00 67 1010.0
20260506174734 30 68 6.4 20.9 0.00 0.00 0.00 68 1010.1
20260506174224 31 23 1.6 20.9 0.00 0.00 0.00 67 1010.4
20260506173714 31 0 3.2 17.7 0.00 0.00 0.00 65 1010.4
20260506173204 31 23 6.4 17.7 0.00 0.00 0.00 66 1010.4
20260506172654 30 45 3.2 20.9 0.00 0.00 0.00 67 1010.1
20260506172144 31 45 8.0 20.9 0.00 0.00 0.00 67 1010.4
20260506170103 31 23 9.7 27.4 0.00 0.00 0.00 66 1010.5
20260506165553 31 45 11.3 25.7 0.00 0.00 0.00 65 1010.8
20260506165043 31 23 12.9 25.7 0.00 0.00 0.00 66 1011.1
20260506164533 30 0 6.4 25.7 0.00 0.00 0.00 67 1010.9
20260506163513 30 23 12.9 24.1 0.00 0.00 0.00 67 1011.5
20260506162452 30 113 14.5 25.7 0.00 0.00 0.00 68 1011.5
20260506161942 31 23 6.4 24.1 0.00 0.00 0.00 67 1011.4
20260506161433 30 45 8.0 24.1 0.00 0.00 0.00 67 1011.3
20260506160922 30 23 4.8 20.9 0.00 0.00 0.00 69 1011.7
20260506160411 30 45 1.6 17.7 0.00 0.00 0.00 70 1011.6
20260506155901 30 68 0.0 17.7 0.00 0.00 0.00 70 1011.6
20260506155352 30 68 8.0 17.7 0.00 0.00 0.00 70 1011.7
20260506154841 30 45 8.0 14.5 0.00 0.00 0.00 70 1011.8
20260506154332 30 45 6.4 20.9 0.00 0.00 0.00 70 1012.0
20260506153821 30 45 3.2 20.9 0.00 0.00 0.00 70 1012.3
20260506153311 30 0 3.2 20.9 0.00 0.00 0.00 69 1012.4
20260506152801 30 45 6.4 20.9 0.00 0.00 0.00 70 1012.4
20260506152251 30 315 1.6 17.7 0.00 0.00 0.00 70 1012.5
20260506151740 29 45 3.2 17.7 0.00 0.00 0.00 69 1012.6
20260506151231 30 68 0.0 17.7 0.00 0.00 0.00 70 1012.8
20260506150721 29 0 4.8 17.7 0.00 0.00 0.00 70 1012.7
20260506150211 29 68 8.0 17.7 0.00 0.00 0.00 71 1013.0
20260506145701 29 0 8.0 17.7 0.00 0.00 0.00 70 1013.0
20260506145150 29 45 0.0 17.7 0.00 0.00 0.00 70 1013.0
20260506144640 28 338 1.6 17.7 0.00 0.00 0.00 72 1013.2
20260506144130 28 68 9.7 20.9 0.00 0.00 0.00 72 1013.4
20260506143110 28 23 3.2 20.9 0.00 0.00 0.00 73 1013.5
20260506142600 28 23 6.4 14.5 0.00 0.00 0.00 73 1013.7
20260506142050 27 45 0.0 17.7 0.00 0.00 0.00 74 1013.9
20260506141540 27 338 4.8 20.9 0.00 0.00 0.00 75 1014.0
20260506141029 27 68 9.7 20.9 0.00 0.00 0.00 75 1013.9
20260506140519 27 68 8.0 20.9 0.00 0.00 0.00 74 1014.0
20260506140024 27 23 6.4 20.9 0.00 0.00 0.00 75 1014.0
20260506134439 27 23 8.0 22.5 0.00 0.00 0.00 75 1014.2
20260506133929 27 90 9.7 22.5 0.00 0.00 0.00 75 1014.1
20260506132909 27 45 6.4 17.7 0.00 0.00 0.00 76 1014.2
20260506131848 26 68 6.4 22.5 0.00 0.00 0.00 76 1014.3
20260506131338 26 23 4.8 20.9 0.00 0.00 0.00 75 1014.4
20260506130828 26 68 3.2 20.9 0.00 0.00 0.00 76 1014.3
20260506125808 26 0 8.0 20.9 0.00 0.00 0.00 77 1014.2
20260506125258 26 90 1.6 12.9 0.00 0.00 0.00 77 1014.0
20260506124748 26 68 0.0 11.3 0.00 0.00 0.00 79 1014.2
20260506124237 25 45 0.0 12.9 0.00 0.00 0.00 80 1014.3
20260506123727 25 68 3.2 12.9 0.00 0.00 0.00 80 1014.1
20260506123218 25 90 0.0 9.7 0.00 0.00 0.00 81 1014.2
20260506122707 25 68 0.0 17.7 0.00 0.00 0.00 82 1014.2
20260506121647 24 90 0.0 3.2 0.00 0.00 0.00 83 1014.0
20260506121136 24 45 0.0 11.3 0.00 0.00 0.00 83 1014.1
20260506120626 24 23 0.0 14.5 0.00 0.00 0.00 83 1014.0
20260506115606 24 68 0.0 12.9 0.00 0.00 0.00 84 1014.1
20260506115056 24 90 0.0 12.9 0.00 0.00 0.00 84 1014.1
20260506114546 23 68 0.0 12.9 0.00 0.00 0.00 85 1014.1
20260506114036 23 68 0.0 11.3 0.00 0.00 0.00 85 1014.0
20260506113526 23 90 0.0 11.3 0.00 0.00 0.00 85 1014.0
20260506113025 23 68 1.6 11.3 0.00 0.00 0.00 86 1013.9
20260506112505 23 45 6.4 11.3 0.00 0.00 0.00 86 1014.3
20260506111955 23 68 0.0 9.7 0.00 0.00 0.00 87 1014.2
20260506111446 23 90 0.0 3.2 0.00 0.00 0.00 87 1014.0
20260506110935 23 68 0.0 3.2 0.00 0.00 0.00 87 1013.8
20260506110425 23 68 0.0 3.2 0.00 0.00 0.00 87 1014.0
20260506105405 23 90 0.0 0.0 0.00 0.00 0.00 88 1013.7
20260506104855 23 90 0.0 0.0 0.00 0.00 0.00 88 1013.9
20260506103834 23 90 0.0 3.2 0.00 0.00 0.00 87 1013.5
20260506103324 23 68 0.0 3.2 0.00 0.00 0.00 87 1013.6
20260506102814 23 90 0.0 3.2 0.00 0.00 0.00 87 1013.6
20260506102305 23 90 0.0 6.4 0.00 0.00 0.00 87 1013.5
20260506101757 23 90 0.0 6.4 0.00 0.00 0.00 87 1013.4
20260506101244 23 113 0.0 3.2 0.00 0.00 0.00 87 1013.4
20260506100734 23 90 0.0 3.2 0.00 0.00 0.00 87 1013.5
20260506100224 23 68 0.0 3.2 0.00 0.00 0.00 87 1013.4
20260506095713 23 90 0.0 3.2 0.00 0.00 0.00 87 1013.3
20260506095204 23 90 0.0 3.2 0.00 0.00 0.00 87 1013.2
20260506094654 23 68 0.0 3.2 0.00 0.00 0.00 87 1013.1
20260506094143 23 68 0.0 3.2 0.00 0.00 0.00 87 1013.1
20260506093633 23 68 0.0 3.2 0.00 0.00 0.00 87 1013.1
20260506093123 23 68 0.0 3.2 0.00 0.00 0.00 87 1012.9
20260506092613 23 90 0.0 3.2 0.00 0.00 0.00 87 1012.9
20260506091553 23 90 0.0 3.2 0.00 0.00 0.00 87 1012.9
20260506091043 23 68 0.0 3.2 0.00 0.00 0.00 86 1013.2
20260506090533 23 45 0.0 3.2 0.00 0.00 0.00 86 1013.1
20260506085513 23 90 0.0 3.2 0.00 0.00 0.00 87 1012.9
20260506085009 23 90 0.0 3.2 0.00 0.00 0.00 87 1013.0
20260506084452 23 68 0.0 3.2 0.00 0.00 0.00 86 1012.7
20260506083942 23 68 0.0 3.2 0.00 0.00 0.00 86 1012.8
20260506083432 23 68 0.0 3.2 0.00 0.00 0.00 86 1013.1
20260506082921 23 90 0.0 3.2 0.00 0.00 0.00 86 1013.0
20260506082411 23 90 0.0 3.2 0.00 0.00 0.00 86 1013.1
20260506081352 23 68 0.0 3.2 0.00 0.00 0.00 86 1012.7
20260506080331 24 68 0.0 3.2 0.00 0.00 0.00 85 1012.9
20260506073230 24 68 0.0 3.2 0.00 0.00 0.00 84 1013.1
20260506072720 24 68 0.0 3.2 0.00 0.00 0.00 84 1013.1
20260506071701 24 68 0.0 3.2 0.00 0.00 0.00 84 1013.1
20260506070640 24 68 0.0 3.2 0.00 0.00 0.00 83 1012.9
20260506070130 24 68 0.0 3.2 0.00 0.00 0.00 83 1012.9
20260506061459 24 68 0.0 3.2 0.00 0.00 0.00 83 1013.1
20260506060949 24 68 0.0 3.2 0.00 0.00 0.00 83 1013.1
20260506060438 24 68 0.0 3.2 0.00 0.00 0.00 83 1013.2
20260506051259 25 90 0.0 3.2 0.00 0.00 0.00 82 1013.6
20260506050744 25 68 0.0 0.0 0.00 0.00 0.00 82 1013.3
20260506050147 25 90 0.0 0.0 0.00 0.00 0.00 83 1013.5
20260506045037 25 90 0.0 3.2 0.00 0.00 0.00 83 1013.5
20260506044535 25 68 0.0 3.2 0.00 0.00 0.00 83 1013.4
20260506044023 25 90 0.0 3.2 0.00 0.00 0.00 84 1013.2
20260506042957 25 90 0.0 3.2 0.00 0.00 0.00 85 1013.8
20260506041937 25 68 0.0 3.2 0.00 0.00 0.00 84 1013.6
20260506041425 25 68 0.0 3.2 0.00 0.00 0.00 83 1013.7
20260506040916 25 113 0.0 3.2 0.00 0.00 0.00 83 1013.9
20260506035856 25 68 0.0 3.2 0.00 0.00 0.00 83 1013.9
20260506035345 25 90 0.0 3.2 0.00 0.00 0.00 83 1013.8
20260506034835 25 68 0.0 3.2 0.00 0.00 0.00 83 1014.1
20260506034326 25 45 0.0 3.2 0.00 0.00 0.00 83 1014.2
20260506033815 25 68 0.0 3.2 0.00 0.00 0.00 84 1014.1
20260506033305 25 68 0.0 3.2 0.00 0.00 0.00 85 1014.4
20260506032755 25 68 0.0 3.2 0.00 0.00 0.00 86 1014.0
20260506032245 25 90 0.0 3.2 0.00 0.00 0.00 86 1014.2
20260506030715 25 90 0.0 3.2 0.00 0.00 0.00 86 1014.4
20260506030205 25 90 0.0 0.0 0.00 0.00 0.00 85 1014.3
20260506025145 25 90 0.0 0.0 0.00 0.00 0.00 84 1014.4
20260506024635 25 90 0.0 0.0 0.00 0.00 0.00 84 1014.3
20260506024125 25 90 0.0 0.0 0.00 0.00 0.00 84 1014.4
20260506023613 25 90 0.0 3.2 0.00 0.00 0.00 84 1014.4
20260506023104 25 90 0.0 3.2 0.00 0.00 0.00 83 1014.6
20260506022044 25 90 0.0 0.0 0.00 0.00 0.00 84 1014.6
20260506021540 25 68 0.0 0.0 0.00 0.00 0.00 84 1014.4
20260506021026 25 45 0.0 3.2 0.00 0.00 0.00 84 1014.5
20260506020002 25 68 0.0 0.0 0.00 0.00 0.00 84 1014.4
20260506015453 25 90 0.0 0.0 0.00 0.00 0.00 84 1014.3
20260506014942 25 45 0.0 0.0 0.00 0.00 0.00 84 1014.4
20260506013923 25 68 0.0 3.2 0.00 0.00 0.00 84 1014.5
20260506013413 25 68 0.0 3.2 0.00 0.00 0.00 84 1014.5
20260506012903 25 45 0.0 3.2 0.00 0.00 0.00 84 1014.4
20260506012352 25 68 0.0 3.2 0.00 0.00 0.00 84 1014.4
20260506011332 25 113 0.0 3.2 0.00 0.00 0.00 85 1014.3
20260506010822 25 68 0.0 3.2 0.00 0.00 0.00 84 1014.7
20260506010312 25 90 0.0 3.2 0.00 0.00 0.00 85 1014.3
20260506005254 25 68 0.0 0.0 0.00 0.00 0.00 84 1014.4
20260506004742 25 90 0.0 0.0 0.00 0.00 0.00 84 1014.3
20260506004231 25 68 0.0 3.2 0.00 0.00 0.00 84 1014.2
20260506003721 25 90 0.0 3.2 0.00 0.00 0.00 83 1014.4
20260506003211 25 90 0.0 0.0 0.00 0.00 0.00 83 1014.5
20260506002701 25 68 0.0 0.0 0.00 0.00 0.00 83 1014.3
20260506001641 25 90 0.0 0.0 0.00 0.00 0.00 84 1014.1
20260506001131 25 68 0.0 0.0 0.00 0.00 0.00 84 1014.2
20260506000621 25 68 0.0 0.0 0.00 0.00 0.00 84 1014.1
20260506000110 25 68 0.0 0.0 0.00 0.00 0.00 84 1014.1
20260505235601 25 90 0.0 0.0 0.00 0.00 0.00 84 1014.1
20260505233521 25 90 0.0 0.0 0.00 0.00 0.00 83 1014.0
20260505233025 26 90 0.0 0.0 0.00 0.00 0.00 82 1014.2
20260505232500 26 68 0.0 0.0 0.00 0.00 0.00 82 1014.0
20260505231950 26 90 0.0 0.0 0.00 0.00 0.00 82 1013.6
20260505230930 26 68 0.0 0.0 0.00 0.00 0.00 81 1013.7
20260505230420 26 23 0.0 0.0 0.00 0.00 0.00 81 1013.7
20260505225359 26 90 0.0 0.0 0.00 0.00 0.00 81 1013.8
20260505224849 26 68 0.0 0.0 0.00 0.00 0.00 80 1013.5
20260505224339 26 68 0.0 0.0 0.00 0.00 0.00 80 1013.5
20260505223828 26 90 0.0 0.0 0.00 0.00 0.00 80 1013.5
20260505223319 26 68 0.0 0.0 0.00 0.00 0.00 81 1013.5
20260505222808 26 90 0.0 0.0 0.00 0.00 0.00 81 1013.4
20260505222258 26 90 0.0 0.0 0.00 0.00 0.00 81 1013.3
20260505221753 26 90 0.0 0.0 0.00 0.00 0.00 80 1013.0
20260505221239 26 68 0.0 0.0 0.00 0.00 0.00 80 1013.2
20260505220728 26 90 0.0 0.0 0.00 0.00 0.00 80 1013.3
20260505215708 26 113 0.0 0.0 0.00 0.00 0.00 79 1012.8
20260505215158 26 90 0.0 0.0 0.00 0.00 0.00 78 1013.0
20260505214650 27 90 0.0 0.0 0.00 0.00 0.00 77 1012.9
20260505214137 27 90 0.0 0.0 0.00 0.00 0.00 76 1012.9
20260505213628 27 90 0.0 3.2 0.00 0.00 0.00 75 1013.0
20260505213117 27 90 0.0 3.2 0.00 0.00 0.00 74 1012.9
20260505212057 28 90 0.0 3.2 0.00 0.00 0.00 73 1012.7
20260505211552 28 68 0.0 3.2 0.00 0.00 0.00 72 1012.9
20260505211036 28 68 0.0 3.2 0.00 0.00 0.00 71 1012.9
20260505210526 28 68 0.0 3.2 0.00 0.00 0.00 70 1012.8
20260505210023 29 68 0.0 3.2 0.00 0.00 0.00 69 1013.0
20260505205508 29 90 0.0 3.2 0.00 0.00 0.00 69 1012.8
20260505204447 30 68 0.0 6.4 0.00 0.00 0.00 67 1012.8
20260505203936 30 90 0.0 9.7 0.00 0.00 0.00 67 1012.7
20260505203425 30 68 0.0 12.9 0.00 0.00 0.00 66 1012.4
20260505202916 30 90 0.0 12.9 0.00 0.00 0.00 67 1012.8
20260505202406 30 68 0.0 3.2 0.00 0.00 0.00 66 1012.5